Weather in Churyakovo

Russia / Yaroslavl Oblast     57°59′03″N   40°32′18″E
temp.,
°C
wind,
m/s
gust,
m/s
humid.,
%
clouds,
%
prec.,
mm/h
press.,
hPa
HPBL,
m
20 april, tue
tue2000:00+2e412665 0.0 1030411
03:000e4117336 0.0 1029332
06:000ene411715 0.0 1029368
09:00+5ese5104545 0.0 1028742
12:00+9ese6940100 0.0 10261457
15:00+10ese6940100 0.0 10241705
18:00+9ese51049100 0.0 10231406
21:00+7ese51050100 0.0 10211142
21 april, wed
wed2100:00+4ese51271100 0.3 1019849
03:00+4ese61263100 0.6 1016886
06:00+1e61696100 2.0 1011806
09:00+1e71596100 4.4 1008975
12:00+4ese81791100 0.4 10051046
15:00+5sse81495100 2.9 10031117
18:00+3ssw71294100 0.1 1006837
21:00+3ssw5992100 0.2 1009782
22 april, thu
thu2200:00+2ssw4993100 0.1 1010526
03:00+2ssw3894100 0.1 1012368
06:00+3s3795100 0.0 1013242
09:00+5s4785100 0.0 1014427
12:00+9ssw5765100 0.0 10151251
15:00+10ssw586692 0.3 10151208
18:00+10s48685 0.2 1016571
21:00+6s412845 0.2 1017366
23 april, fri
fri2300:00+5s311916 0.0 1018272
03:00+3sse310946 0.0 1018230
06:00+4se412915 0.0 1017328
09:00+10sse5107530 0.0 1017614
12:00+14sse58616 0.0 10171171
15:00+16s585994 1.4 10161429
18:00+14s596771 2.3 1016455
21:00+10sse3118184 2.4 1016250
24 april, sat
sat2400:00+8se310915 0.2 1015239
03:00+7se412905 0.2 1014262
06:00+7se4138842 0.0 1013365
09:00+12se6137295 0.2 1011889
12:00+15se7115599 0.5 10091929
15:00+14se71262100 1.1 10081930
18:00+11ese7137299 0.4 10061269
21:00+7ssw3884100 0.7 1006796